This demonstration page uses our WeatherBlox Daily Observations layout. Learn more.

Left ArrowRight Arrow

41.12389, -100.76542

Hourly Observations for December 17, 2017

Temp ( °F °C ) Dew Point ( °F °C ) Humidity (%) Winds ( mph kmh ) Pressure ( in mb ) Visibility ( mi km ) Precip ( " mm )
12:53 am 00:53 Cloudy 37 2.8 33 0.6 86 86 NNE 16 26 29.96 1015 10 16 0.00 0.00
1:53 am 01:53 Cloudy 37 2.8 33 0.6 86 86 ENE 9 15 30.00 1016 10 16 0.00 0.00
2:53 am 02:53 Cloudy 37 2.8 33 0.6 86 86 NE 7 11 30.02 1017 10 16 0.00 0.00
3:36 am 03:36 Cloudy 36 2.2 32 0 86 86 NNE 10 17 30.09 1019 10 16 0.00 0.00
3:53 am 03:53 Cloudy 35 1.7 32 0 89 89 NNE 9 15 30.02 1017 10 16 0.00 0.00
4:27 am 04:27 Cloudy 35 1.7 33 0.6 93 93 NNE 8 13 30.09 1019 9 14 0.00 0.00
4:53 am 04:53 Cloudy 35 1.7 33 0.6 93 93 NNE 6 9 30.02 1017 8 13 0.00 0.00
5:53 am 05:53 Cloudy 35 1.7 33 0.6 93 93 N 5 7 30.05 1018 10 16 0.00 0.00
6:53 am 06:53 Cloudy 35 1.7 32 0 89 89 NW 6 9 30.07 1018 10 16 0.00 0.00
7:53 am 07:53 Cloudy 35 1.7 32 0 89 89 Calm 30.07 1018 10 16 0.00 0.00
8:51 am 08:51 Cloudy 36 2 34 1 93 93 Calm 30.12 1020 10 16 0.00 0.00
8:53 am 08:53 Cloudy 35 1.7 32 0 89 89 Calm 30.09 1019 10 16 0.00 0.00
9:04 am 09:04 Cloudy 35 1.7 32 0 89 89 WNW 3 6 30.12 1020 10 16 0.00 0.00
9:12 am 09:12 Cloudy 35 1.7 32 0 89 89 WNW 6 9 30.15 1021 10 16 0.00 0.00
9:21 am 09:21 Cloudy 35 1.7 32 0 89 89 NW 8 13 30.15 1021 10 16 0.00 0.00
9:53 am 09:53 Cloudy 35 1.7 32 0 89 89 NW 6 9 30.09 1019 10 16 0.00 0.00
10:20 am 10:20 Cloudy 36 2.2 32 0 86 86 NNW 3 6 30.15 1021 10 16 0.00 0.00
10:53 am 10:53 Cloudy 36 2.2 32 0 86 86 Calm 30.11 1020 10 16 0.00 0.00
11:32 am 11:32 Cloudy 37 2.8 32 0 82 82 WNW 3 6 30.15 1021 10 16 0.00 0.00
11:53 am 11:53 Cloudy 38 3.3 33 0.6 83 83 WNW 3 6 30.06 1018 10 16 0.00 0.00
12:14 pm 12:14 Cloudy 38 3.3 32 0 79 79 NNW 6 9 30.06 1018 10 16 0.00 0.00
12:29 pm 12:29 Cloudy 38 3.3 32 0 79 79 NW 3 6 30.06 1018 10 16 0.00 0.00
12:53 pm 12:53 Cloudy 38 3.3 32 0 79 79 N 5 7 30.03 1017 10 16 0.00 0.00
1:27 pm 13:27 Cloudy 38 3.3 32 0 79 79 NNW 5 7 30.03 1017 10 16 0.00 0.00
1:53 pm 13:53 Cloudy 38 3.3 32 0 79 79 W 3 6 30.01 1016 10 16 0.00 0.00
2:53 pm 14:53 Cloudy 39 3.9 32 0 76 76 WSW 7 11 29.98 1015 10 16 0.00 0.00
3:53 pm 15:53 Cloudy 40 4.4 32 0 73 73 SW 5 7 29.98 1015 10 16 0.00 0.00
4:48 pm 16:48 Partly Cloudy 39 4 30 -1 70 70 Calm 30.00 1016 10 16 0.00 0.00
4:53 pm 16:53 Mostly Sunny 38 3.3 31 -0.6 76 76 Calm 29.97 1015 10 16 0.00 0.00
5:53 pm 17:53 Clear 30 -1.1 27 -2.8 88 88 S 5 7 30.00 1016 10 16 0.00 0.00
6:53 pm 18:53 Clear 25 -3.9 24 -4.4 96 96 Calm 30.01 1016 8 13 0.00 0.00
7:53 pm 19:53 Clear 25 -3.9 24 -4.4 96 96 S 6 9 30.02 1017 8 13 0.00 0.00
8:53 pm 20:53 Clear 30 -1.1 27 -2.8 88 88 S 7 11 30.02 1017 10 16 0.00 0.00
9:53 pm 21:53 Clear 30 -1.1 27 -2.8 88 88 S 7 11 30.01 1016 10 16 0.00 0.00
10:53 pm 22:53 Clear 31 -0.6 26 -3.3 82 82 SSW 6 9 30.00 1016 10 16 0.00 0.00
11:53 pm 23:53 Clear 27 -2.8 24 -4.4 89 89 W 6 9 30.01 1016 10 16 0.00 0.00

Powered by AerisWeather